Regional Weather Roundup
Issued by NWS New Orleans/Baton Rouge, LA

Home | Current Version | Previous Version | Text Only | Print | Product List | Glossary On
Versions: 1 2 3 4 5 6 7 8 9 10 11 12 13 14 15 16 17 18 19 20 21 22 23 24 25 26 27 28 29 30 31 32 33 34 35 36 37 38 39 40 41 42 43 44 45 46 47 48 49 50
843
ASUS44 KLIX 151901
RWRLIX
NEW ORLEANS REGIONAL WEATHER ROUNDUP
NATIONAL WEATHER SERVICE NEW ORLEANS LA
200 PM CDT TUE APR 15 2014

NOTE: "FAIR" INDICATES FEW OR NO CLOUDS BELOW 12,000 FEET WITH NO
      SIGNIFICANT WEATHER AND/OR OBSTRUCTIONS TO VISIBILITY.
      SKY/WX - SKY CONDITION AND SIGNIFICANT WEATHER.
      TMP - AIR TEMPERATURE.     DP    - DEWPOINT TEMPERATURE.
      RH  - RELATIVE HUMIDITY.   PRES  - PRESSURE.
      HI  - HEAT INDEX.          WCI   - WIND CHILL INDEX.

*  THESE STATIONS ARE NOT NWS OR FAA STATIONS AND ARE NOT UNDER
   NWS QUALITY CONTROL.

LAZ038-040-048-061>063-065>067-069-152000-
SOUTHEAST LOUISIANA

CITY           SKY/WX    TMP DP  RH WIND       PRES   REMARKS
N.O. AUDUBON     N/A     60  37  41 MISG        N/A
N.O. INTL ARPT MOSUNNY   58  37  45 N18       30.10F
N.O. LAKEFRONT SUNNY     59  40  49 N23       30.10F
N.O. DOWNTOWN*   N/A     57  34  41 N13G22    30.11S
SLIDELL        SUNNY     59  33  37 N20       30.08F
BATON ROUGE    SUNNY     60  31  33 N9        30.13F
BOOTHVILLE     MOSUNNY   55  42  61 N16G25    30.09F
BELLE CHASSE   PTSUNNY   58  35  42 N12G22    30.09F
BOGALUSA*        N/A     58  29  33 N18G28    30.12S
GALLIANO*      NOT AVBL
NEW ROADS*     NOT AVBL
GONZALES*        N/A     59  36  42 N13G22    30.12S
HAMMOND*       NOT AVBL
HOUMA*         SUNNY     57  37  47 N16       30.11F
PORT FOURCHON* CLEAR     55  41  58 N24G33    30.12S

$$

MSZ070-080>082-152000-
SOUTHERN MISSISSIPPI

CITY           SKY/WX    TMP DP  RH WIND       PRES   REMARKS
MCCOMB         SUNNY     55  25  31 N16G29    30.13F
GULFPORT       SUNNY     59  34  39 N18G28    30.06F
BILOXI         SUNNY     57  37  46 N23       30.06F
PASCAGOULA     MOSUNNY   55  39  54 N13G26    30.07F
STENNIS ARPT*  SUNNY     59  34  38 N20G32    30.08F

$$

COASTAL OBSERVATIONS
LAKE AND NEARSHORE STATIONS

STATION/POSITION TIME  TEMP    WIND        PRES    WAVE
                       AIR SEA DIR/SP/G            HT/PER
                 (UTC) (F)     (DEG/KT/KT) (MB)    (FT/S)
PASCAGOULA       1800   53     340/ 19/ 23 1017.6
WAVELAND YACHT   1800   54     360/ 21/ 29 1017.6
GRAND ISLE       1800   54      10/ 19/ 24 1019.4
SOUTHWEST PASS   1800   55     360/ 21/ 26 1019.3
NEW CANAL        1800   55     360/ 19/ 25 1019.7
SHELL BEACH      1800   53     340/ 23/ 26 1018.7

OFFSHORE STATIONS

STATION/POSITION TIME  TEMP    WIND        PRES    WAVE
                       AIR SEA DIR/SP/G            HT/PER
                 (UTC) (F)     (DEG/KT/KT) (MB)    (FT/S)
64 S DAUPHIN ISL 1800   54 67  340/ 29     1017.4

$$




USA.gov is the U.S. government's official web portal to all federal, state and local government web resources and services.